Time,TemperatureF,DewpointF,PressureIn,WindDirection,WindDirectionDegrees,WindSpeedMPH,WindSpeedGustMPH,Humidity,HourlyPrecipIn,Conditions,Clouds,dailyrainin,SoftwareType,DateUTC
2013-01-30 00:00:00,34.0,33.5,30.06,South,180,0.0,8.0,98,0.01,,---,0.00,VWS V14.01,2013-01-30 08:00:00,
2013-01-30 00:03:00,33.9,33.4,30.07,South,180,1.0,2.0,98,0.01,,---,0.00,VWS V14.01,2013-01-30 08:03:00,
2013-01-30 00:08:00,33.9,33.4,30.07,WSW,254,1.0,3.0,98,0.01,,---,0.00,VWS V14.01,2013-01-30 08:08:00,
2013-01-30 00:13:00,33.9,33.4,30.07,SW,219,3.0,8.0,98,0.02,,---,0.01,VWS V14.01,2013-01-30 08:13:00,
2013-01-30 00:19:00,33.8,33.3,30.07,SSW,205,2.0,8.0,98,0.02,,---,0.01,VWS V14.01,2013-01-30 08:19:00,
2013-01-30 00:24:00,33.7,33.2,30.07,SW,232,6.0,8.0,98,0.02,,---,0.01,VWS V14.01,2013-01-30 08:24:00,
2013-01-30 00:29:00,33.7,33.2,30.07,SW,216,1.0,8.0,98,0.02,,---,0.01,VWS V14.01,2013-01-30 08:29:00,
2013-01-30 00:34:00,33.6,33.1,30.07,WSW,253,1.0,8.0,98,0.02,,---,0.01,VWS V14.01,2013-01-30 08:34:00,
2013-01-30 00:39:00,33.6,33.1,30.07,South,190,4.0,8.0,98,0.02,,---,0.01,VWS V14.01,2013-01-30 08:39:00,
2013-01-30 00:44:00,33.6,33.1,30.07,SSW,196,2.0,8.0,98,0.02,,---,0.01,VWS V14.01,2013-01-30 08:44:00,
2013-01-30 00:49:00,33.5,33.0,30.08,SW,232,3.0,8.0,98,0.03,,---,0.02,VWS V14.01,2013-01-30 08:49:00,
2013-01-30 00:54:00,33.5,33.0,30.07,SSW,203,3.0,8.0,98,0.03,,---,0.02,VWS V14.01,2013-01-30 08:54:00,
2013-01-30 00:59:00,33.5,33.0,30.07,WSW,250,5.0,8.0,98,0.03,,---,0.02,VWS V14.01,2013-01-30 08:59:00,
2013-01-30 01:00:00,33.4,32.9,30.07,SSW,193,4.0,8.0,98,0.03,,---,0.02,VWS V14.01,2013-01-30 09:00:00,
2013-01-30 01:03:00,33.4,32.9,30.07,South,176,4.0,5.0,98,0.02,,---,0.02,VWS V14.01,2013-01-30 09:03:00,
2013-01-30 01:08:00,33.4,32.9,30.07,SSW,213,0.0,5.0,98,0.02,,---,0.02,VWS V14.01,2013-01-30 09:08:00,
2013-01-30 01:13:00,33.4,32.9,30.07,SW,214,5.0,5.0,98,0.02,,---,0.02,VWS V14.01,2013-01-30 09:13:00,
2013-01-30 01:18:00,33.4,32.9,30.08,SW,215,1.0,5.0,98,0.02,,---,0.02,VWS V14.01,2013-01-30 09:18:00,
2013-01-30 01:23:00,33.3,32.8,30.08,WSW,254,1.0,5.0,98,0.02,,---,0.02,VWS V14.01,2013-01-30 09:23:00,
2013-01-30 01:28:00,33.3,32.8,30.08,SW,236,2.0,6.0,98,0.02,,---,0.02,VWS V14.01,2013-01-30 09:28:00,
2013-01-30 01:33:00,33.2,32.7,30.07,SSW,200,2.0,6.0,98,0.02,,---,0.02,VWS V14.01,2013-01-30 09:33:00,
2013-01-30 01:38:00,33.2,32.7,30.07,South,181,2.0,6.0,98,0.02,,---,0.02,VWS V14.01,2013-01-30 09:38:00,
2013-01-30 01:43:00,33.2,32.7,30.07,SSW,205,2.0,6.0,98,0.02,,---,0.02,VWS V14.01,2013-01-30 09:43:00,
2013-01-30 01:48:00,33.1,32.6,30.08,WSW,238,2.0,6.0,98,0.02,,---,0.02,VWS V14.01,2013-01-30 09:48:00,
2013-01-30 01:53:00,33.1,32.6,30.07,WSW,257,3.0,6.0,98,0.02,,---,0.02,VWS V14.01,2013-01-30 09:53:00,
2013-01-30 01:58:00,33.1,32.6,30.08,SSW,196,1.0,6.0,98,0.02,,---,0.02,VWS V14.01,2013-01-30 09:58:00,
2013-01-30 02:00:00,33.0,32.5,30.08,SSW,196,1.0,6.0,98,0.02,,---,0.02,VWS V14.01,2013-01-30 10:00:00,
2013-01-30 02:03:00,33.0,32.5,30.08,SSW,196,1.0,3.0,98,0.00,,---,0.02,VWS V14.01,2013-01-30 10:03:00,
2013-01-30 02:08:00,32.9,32.4,30.08,South,181,1.0,4.0,98,0.00,,---,0.02,VWS V14.01,2013-01-30 10:08:00,
2013-01-30 02:13:00,32.8,32.3,30.08,SW,224,1.0,4.0,98,0.00,,---,0.02,VWS V14.01,2013-01-30 10:13:00,
2013-01-30 02:18:00,32.8,32.3,30.08,SW,219,1.0,4.0,98,0.00,,---,0.02,VWS V14.01,2013-01-30 10:18:00,
2013-01-30 02:23:00,32.6,32.1,30.08,SW,219,1.0,4.0,98,0.00,,---,0.02,VWS V14.01,2013-01-30 10:23:00,
2013-01-30 02:28:00,32.5,32.0,30.08,SW,219,0.0,4.0,98,0.00,,---,0.02,VWS V14.01,2013-01-30 10:28:00,
2013-01-30 02:33:00,32.4,31.9,30.07,SSW,201,3.0,5.0,98,0.00,,---,0.02,VWS V14.01,2013-01-30 10:33:00,
2013-01-30 02:38:00,32.3,31.8,30.07,SW,227,0.0,5.0,98,0.00,,---,0.02,VWS V14.01,2013-01-30 10:38:00,
2013-01-30 02:43:00,32.3,31.8,30.07,SW,215,2.0,5.0,98,0.00,,---,0.02,VWS V14.01,2013-01-30 10:43:00,
2013-01-30 02:48:00,32.2,31.7,30.07,SW,215,2.0,5.0,98,0.00,,---,0.02,VWS V14.01,2013-01-30 10:48:00,
2013-01-30 02:53:00,32.1,31.6,30.06,SW,219,1.0,5.0,98,0.00,,---,0.02,VWS V14.01,2013-01-30 10:53:00,
2013-01-30 02:58:00,32.0,31.5,30.07,SSE,148,2.0,5.0,98,0.00,,---,0.02,VWS V14.01,2013-01-30 10:58:00,
2013-01-30 03:00:00,31.9,31.4,30.07,SW,219,3.0,5.0,98,0.00,,---,0.02,VWS V14.01,2013-01-30 11:00:00,
2013-01-30 03:03:00,31.9,31.4,30.07,SW,219,2.0,3.0,98,0.00,,---,0.02,VWS V14.01,2013-01-30 11:03:00,
2013-01-30 03:08:00,31.9,31.4,30.06,SSW,200,3.0,6.0,98,0.00,,---,0.02,VWS V14.01,2013-01-30 11:08:00,
2013-01-30 03:13:00,31.9,31.4,30.07,SSW,196,0.0,6.0,98,0.00,,---,0.02,VWS V14.01,2013-01-30 11:13:00,
2013-01-30 03:18:00,31.9,31.4,30.07,WSW,246,0.0,6.0,98,0.00,,---,0.02,VWS V14.01,2013-01-30 11:18:00,
2013-01-30 03:23:00,31.9,31.4,30.07,SW,221,0.0,6.0,98,0.00,,---,0.02,VWS V14.01,2013-01-30 11:23:00,
2013-01-30 03:28:00,32.0,31.5,30.07,SSW,206,2.0,6.0,98,0.00,,---,0.02,VWS V14.01,2013-01-30 11:28:00,
2013-01-30 03:33:00,32.0,31.5,30.07,West,280,4.0,6.0,98,0.00,,---,0.02,VWS V14.01,2013-01-30 11:33:00,
2013-01-30 03:38:00,32.0,31.5,30.07,West,280,1.0,6.0,98,0.00,,---,0.02,VWS V14.01,2013-01-30 11:38:00,
2013-01-30 03:43:00,32.0,31.5,30.07,SSW,211,2.0,6.0,98,0.00,,---,0.02,VWS V14.01,2013-01-30 11:43:00,
2013-01-30 03:48:00,32.0,31.5,30.06,South,185,2.0,6.0,98,0.00,,---,0.02,VWS V14.01,2013-01-30 11:48:00,
2013-01-30 03:53:00,31.9,31.4,30.06,South,172,1.0,6.0,98,0.00,,---,0.02,VWS V14.01,2013-01-30 11:53:00,
2013-01-30 03:58:00,31.8,31.3,30.06,SSW,209,3.0,6.0,98,0.00,,---,0.02,VWS V14.01,2013-01-30 11:58:00,
2013-01-30 04:00:00,31.8,31.3,30.06,SSW,209,2.0,6.0,98,0.00,,---,0.02,VWS V14.01,2013-01-30 12:00:00,
2013-01-30 04:03:00,31.7,31.2,30.06,SSW,211,1.0,4.0,98,0.00,,---,0.02,VWS V14.01,2013-01-30 12:03:00,
2013-01-30 04:08:00,31.6,31.1,30.06,WSW,244,1.0,5.0,98,0.00,,---,0.02,VWS V14.01,2013-01-30 12:08:00,
2013-01-30 04:13:00,31.6,31.1,30.07,SSW,196,1.0,5.0,98,0.00,,---,0.02,VWS V14.01,2013-01-30 12:13:00,
2013-01-30 04:18:00,31.5,31.0,30.07,SW,217,1.0,5.0,98,0.00,,---,0.02,VWS V14.01,2013-01-30 12:18:00,
2013-01-30 04:23:00,31.4,30.9,30.06,SSW,212,0.0,5.0,98,0.00,,---,0.02,VWS V14.01,2013-01-30 12:23:00,
2013-01-30 04:28:00,31.5,31.0,30.06,South,182,3.0,5.0,98,0.00,,---,0.02,VWS V14.01,2013-01-30 12:28:00,
2013-01-30 04:34:00,31.5,31.0,30.06,South,185,2.0,5.0,98,0.00,,---,0.02,VWS V14.01,2013-01-30 12:34:00,
2013-01-30 04:39:00,31.4,30.9,30.06,SW,217,2.0,5.0,98,0.00,,---,0.02,VWS V14.01,2013-01-30 12:39:00,
2013-01-30 04:44:00,31.3,30.8,30.06,SW,217,0.0,5.0,98,0.00,,---,0.02,VWS V14.01,2013-01-30 12:44:00,
2013-01-30 04:49:00,31.2,30.7,30.06,SW,219,3.0,5.0,98,0.00,,---,0.02,VWS V14.01,2013-01-30 12:49:00,
2013-01-30 04:54:00,31.1,30.6,30.06,SW,221,4.0,5.0,98,0.00,,---,0.02,VWS V14.01,2013-01-30 12:54:00,
2013-01-30 04:59:00,30.9,30.4,30.05,SW,225,0.0,5.0,98,0.00,,---,0.02,VWS V14.01,2013-01-30 12:59:00,
2013-01-30 05:00:00,30.9,30.4,30.06,West,269,1.0,5.0,98,0.00,,---,0.02,VWS V14.01,2013-01-30 13:00:00,
2013-01-30 05:04:00,30.9,30.4,30.06,SW,234,3.0,4.0,98,0.00,,---,0.02,VWS V14.01,2013-01-30 13:04:00,
2013-01-30 05:09:00,30.8,30.3,30.06,SW,234,0.0,4.0,98,0.00,,---,0.02,VWS V14.01,2013-01-30 13:09:00,
2013-01-30 05:14:00,30.7,30.2,30.06,SW,226,1.0,5.0,98,0.00,,---,0.02,VWS V14.01,2013-01-30 13:14:00,
2013-01-30 05:19:00,30.6,30.1,30.05,SSW,213,1.0,5.0,98,0.00,,---,0.02,VWS V14.01,2013-01-30 13:19:00,
2013-01-30 05:24:00,30.5,30.0,30.05,SSW,212,2.0,5.0,98,0.00,,---,0.02,VWS V14.01,2013-01-30 13:24:00,
2013-01-30 05:29:00,30.5,30.0,30.06,WSW,248,2.0,5.0,98,0.00,,---,0.02,VWS V14.01,2013-01-30 13:29:00,
2013-01-30 05:34:00,30.6,30.1,30.06,SSW,193,2.0,10.0,98,0.00,,---,0.02,VWS V14.01,2013-01-30 13:34:00,
2013-01-30 05:39:00,30.7,30.2,30.06,South,170,0.0,10.0,98,0.00,,---,0.02,VWS V14.01,2013-01-30 13:39:00,
2013-01-30 05:44:00,30.7,30.2,30.06,WSW,238,4.0,10.0,98,0.00,,---,0.02,VWS V14.01,2013-01-30 13:44:00,
2013-01-30 05:49:00,30.7,30.2,30.06,SSW,213,5.0,10.0,98,0.00,,---,0.02,VWS V14.01,2013-01-30 13:49:00,
2013-01-30 05:54:00,30.7,30.2,30.06,SSW,199,4.0,10.0,98,0.00,,---,0.02,VWS V14.01,2013-01-30 13:54:00,
2013-01-30 05:59:00,30.7,30.2,30.06,SW,223,3.0,10.0,98,0.00,,---,0.02,VWS V14.01,2013-01-30 13:59:00,
2013-01-30 06:00:00,30.7,30.2,30.06,SW,229,6.0,10.0,98,0.00,,---,0.02,VWS V14.01,2013-01-30 14:00:00,
2013-01-30 06:04:00,30.7,30.2,30.06,South,177,1.0,7.0,98,0.00,,---,0.02,VWS V14.01,2013-01-30 14:04:00,
2013-01-30 06:09:00,30.6,30.1,30.07,SSW,210,2.0,7.0,98,0.00,,---,0.02,VWS V14.01,2013-01-30 14:09:00,
2013-01-30 06:14:00,30.7,30.2,30.07,SW,214,1.0,7.0,98,0.00,,---,0.02,VWS V14.01,2013-01-30 14:14:00,
2013-01-30 06:19:00,30.7,30.2,30.07,South,186,2.0,7.0,98,0.00,,---,0.02,VWS V14.01,2013-01-30 14:19:00,
2013-01-30 06:24:00,30.7,30.2,30.07,SW,232,0.0,7.0,98,0.00,,---,0.02,VWS V14.01,2013-01-30 14:24:00,
2013-01-30 06:29:00,30.8,30.3,30.07,South,185,3.0,7.0,98,0.00,,---,0.02,VWS V14.01,2013-01-30 14:29:00,
2013-01-30 06:34:00,30.8,30.3,30.07,SW,225,2.0,7.0,98,0.00,,---,0.02,VWS V14.01,2013-01-30 14:34:00,
2013-01-30 06:39:00,31.0,30.5,30.07,WSW,242,4.0,8.0,98,0.00,,---,0.02,VWS V14.01,2013-01-30 14:39:00,
2013-01-30 06:44:00,31.2,30.7,30.07,SW,229,2.0,8.0,98,0.00,,---,0.02,VWS V14.01,2013-01-30 14:44:00,
2013-01-30 06:49:00,31.2,30.7,30.06,SW,217,3.0,8.0,98,0.00,,---,0.02,VWS V14.01,2013-01-30 14:49:00,
2013-01-30 06:54:00,31.3,30.8,30.07,SSW,206,8.0,8.0,98,0.00,,---,0.02,VWS V14.01,2013-01-30 14:54:00,
2013-01-30 06:59:00,31.4,30.9,30.07,SW,217,3.0,8.0,98,0.00,,---,0.02,VWS V14.01,2013-01-30 14:59:00,
2013-01-30 07:00:00,31.4,30.9,30.07,SW,217,4.0,8.0,98,0.00,,---,0.02,VWS V14.01,2013-01-30 15:00:00,
2013-01-30 07:04:00,31.5,31.0,30.07,SW,226,0.0,4.0,98,0.00,,---,0.02,VWS V14.01,2013-01-30 15:04:00,
2013-01-30 07:09:00,31.5,31.0,30.07,SSW,209,4.0,7.0,98,0.00,,---,0.02,VWS V14.01,2013-01-30 15:09:00,
2013-01-30 07:14:00,31.6,31.1,30.07,SW,224,2.0,7.0,98,0.00,,---,0.02,VWS V14.01,2013-01-30 15:14:00,
2013-01-30 07:19:00,31.6,31.1,30.07,SW,225,4.0,7.0,98,0.00,,---,0.02,VWS V14.01,2013-01-30 15:19:00,
2013-01-30 07:24:00,31.6,31.1,30.07,SW,217,3.0,7.0,98,0.00,,---,0.02,VWS V14.01,2013-01-30 15:24:00,
2013-01-30 07:29:00,31.6,31.1,30.07,SW,222,2.0,7.0,98,0.00,,---,0.02,VWS V14.01,2013-01-30 15:29:00,
2013-01-30 07:34:00,31.6,31.1,30.07,SW,225,4.0,7.0,98,0.00,,---,0.02,VWS V14.01,2013-01-30 15:34:00,
2013-01-30 07:39:00,31.7,31.2,30.08,South,190,3.0,7.0,98,0.00,,---,0.02,VWS V14.01,2013-01-30 15:39:00,
2013-01-30 07:44:00,31.7,31.2,30.08,SSW,212,0.0,8.0,98,0.00,,---,0.02,VWS V14.01,2013-01-30 15:44:00,
2013-01-30 07:49:00,31.7,31.2,30.08,SW,225,0.0,8.0,98,0.00,,---,0.02,VWS V14.01,2013-01-30 15:49:00,
2013-01-30 07:54:00,31.7,31.2,30.08,SE,138,2.0,8.0,98,0.00,,---,0.02,VWS V14.01,2013-01-30 15:54:00,
2013-01-30 07:59:00,31.8,31.3,30.09,SSW,192,1.0,8.0,98,0.00,,---,0.02,VWS V14.01,2013-01-30 15:59:00,
2013-01-30 08:00:00,31.8,31.3,30.09,SSW,209,6.0,8.0,98,0.00,,---,0.02,VWS V14.01,2013-01-30 16:00:00,
2013-01-30 08:04:00,31.8,31.3,30.09,SSW,202,3.0,7.0,98,0.00,,---,0.02,VWS V14.01,2013-01-30 16:04:00,
2013-01-30 08:09:00,31.9,31.4,30.09,SSW,202,1.0,7.0,98,0.00,,---,0.02,VWS V14.01,2013-01-30 16:09:00,
2013-01-30 08:14:00,31.9,31.4,30.09,SW,214,3.0,9.0,98,0.00,,---,0.02,VWS V14.01,2013-01-30 16:14:00,
2013-01-30 08:19:00,31.9,31.4,30.09,SW,232,4.0,9.0,98,0.00,,---,0.02,VWS V14.01,2013-01-30 16:19:00,
2013-01-30 08:24:00,31.9,31.4,30.10,SSW,196,1.0,9.0,98,0.00,,---,0.02,VWS V14.01,2013-01-30 16:24:00,
2013-01-30 08:29:00,32.0,31.5,30.10,SSW,196,3.0,9.0,98,0.00,,---,0.02,VWS V14.01,2013-01-30 16:29:00,
2013-01-30 08:34:00,32.1,31.6,30.10,SW,230,3.0,9.0,98,0.00,,---,0.02,VWS V14.01,2013-01-30 16:34:00,
2013-01-30 08:39:00,32.1,31.6,30.10,SW,232,4.0,9.0,98,0.00,,---,0.02,VWS V14.01,2013-01-30 16:39:00,
2013-01-30 08:44:00,32.1,31.6,30.10,SW,232,7.0,9.0,98,0.00,,---,0.02,VWS V14.01,2013-01-30 16:44:00,
2013-01-30 08:49:00,32.3,31.8,30.10,SW,232,2.0,9.0,98,0.00,,---,0.02,VWS V14.01,2013-01-30 16:49:00,
2013-01-30 08:54:00,32.3,31.8,30.10,SW,214,0.0,9.0,98,0.00,,---,0.02,VWS V14.01,2013-01-30 16:54:00,
2013-01-30 08:59:00,32.4,31.9,30.10,WSW,238,2.0,9.0,98,0.00,,---,0.02,VWS V14.01,2013-01-30 16:59:00,
2013-01-30 09:00:00,32.5,32.0,30.10,WSW,239,1.0,9.0,98,0.00,,---,0.02,VWS V14.01,2013-01-30 17:00:00,
2013-01-30 09:04:00,32.6,32.1,30.10,South,173,1.0,4.0,98,0.00,,---,0.02,VWS V14.01,2013-01-30 17:04:00,
2013-01-30 09:09:00,32.6,32.1,30.10,WSW,239,0.0,4.0,98,0.00,,---,0.02,VWS V14.01,2013-01-30 17:09:00,
2013-01-30 09:14:00,32.7,32.2,30.11,South,190,1.0,4.0,98,0.00,,---,0.02,VWS V14.01,2013-01-30 17:14:00,
2013-01-30 09:19:00,32.8,32.3,30.11,SSW,192,4.0,9.0,98,0.00,,---,0.02,VWS V14.01,2013-01-30 17:19:00,
2013-01-30 09:24:00,32.8,32.3,30.11,West,277,3.0,9.0,98,0.00,,---,0.02,VWS V14.01,2013-01-30 17:24:00,
2013-01-30 09:29:00,32.8,32.3,30.11,WSW,238,0.0,9.0,98,0.00,,---,0.02,VWS V14.01,2013-01-30 17:29:00,
2013-01-30 09:34:00,32.9,32.4,30.11,SW,234,1.0,9.0,98,0.00,,---,0.02,VWS V14.01,2013-01-30 17:34:00,
2013-01-30 09:39:00,33.0,32.5,30.11,SW,234,2.0,9.0,98,0.00,,---,0.02,VWS V14.01,2013-01-30 17:39:00,
2013-01-30 09:44:00,33.0,32.5,30.11,SSW,200,1.0,9.0,98,0.00,,---,0.02,VWS V14.01,2013-01-30 17:44:00,
2013-01-30 09:49:00,33.2,32.7,30.11,SW,229,1.0,9.0,98,0.00,,---,0.02,VWS V14.01,2013-01-30 17:49:00,
2013-01-30 09:54:00,33.2,32.7,30.11,SW,215,5.0,9.0,98,0.00,,---,0.02,VWS V14.01,2013-01-30 17:54:00,
2013-01-30 09:59:00,33.3,32.8,30.11,WSW,238,1.0,9.0,98,0.00,,---,0.02,VWS V14.01,2013-01-30 17:59:00,
2013-01-30 10:00:00,33.3,32.8,30.11,SSW,202,4.0,9.0,98,0.01,,---,0.03,VWS V14.01,2013-01-30 18:00:00,
2013-01-30 10:04:00,33.3,32.8,30.11,WSW,238,1.0,7.0,98,0.01,,---,0.03,VWS V14.01,2013-01-30 18:04:00,
2013-01-30 10:09:00,33.4,32.9,30.11,WSW,246,4.0,7.0,98,0.01,,---,0.03,VWS V14.01,2013-01-30 18:09:00,
2013-01-30 10:14:00,33.5,33.0,30.11,SW,227,4.0,7.0,98,0.01,,---,0.03,VWS V14.01,2013-01-30 18:14:00,
2013-01-30 10:19:00,33.6,33.1,30.11,South,174,5.0,7.0,98,0.01,,---,0.03,VWS V14.01,2013-01-30 18:19:00,
2013-01-30 10:24:00,33.7,33.2,30.11,South,172,1.0,7.0,98,0.01,,---,0.03,VWS V14.01,2013-01-30 18:24:00,
2013-01-30 10:29:00,33.7,33.2,30.11,South,171,5.0,7.0,98,0.01,,---,0.03,VWS V14.01,2013-01-30 18:29:00,
2013-01-30 10:34:00,33.7,33.2,30.12,SW,218,1.0,7.0,98,0.01,,---,0.03,VWS V14.01,2013-01-30 18:34:00,
2013-01-30 10:39:00,33.8,33.3,30.12,SW,228,1.0,7.0,98,0.01,,---,0.03,VWS V14.01,2013-01-30 18:39:00,
2013-01-30 10:44:00,33.9,33.4,30.11,SSW,204,4.0,8.0,98,0.01,,---,0.03,VWS V14.01,2013-01-30 18:44:00,
2013-01-30 10:49:00,33.9,33.4,30.12,SW,224,8.0,8.0,98,0.01,,---,0.03,VWS V14.01,2013-01-30 18:49:00,
2013-01-30 10:54:00,34.1,33.6,30.12,SW,223,0.0,8.0,98,0.01,,---,0.03,VWS V14.01,2013-01-30 18:54:00,
2013-01-30 10:59:00,34.3,33.8,30.12,WSW,244,0.0,8.0,98,0.01,,---,0.03,VWS V14.01,2013-01-30 18:59:00,
2013-01-30 11:00:00,34.4,33.9,30.12,WSW,244,1.0,8.0,98,0.01,,---,0.03,VWS V14.01,2013-01-30 19:00:00,
2013-01-30 11:04:00,34.5,34.0,30.12,SSW,200,2.0,6.0,98,0.00,,---,0.03,VWS V14.01,2013-01-30 19:04:00,
2013-01-30 11:09:00,34.7,34.2,30.12,SW,227,3.0,8.0,98,0.00,,---,0.03,VWS V14.01,2013-01-30 19:09:00,
2013-01-30 11:14:00,34.8,34.3,30.12,South,186,2.0,8.0,98,0.00,,---,0.03,VWS V14.01,2013-01-30 19:14:00,
2013-01-30 11:19:00,35.0,34.5,30.12,South,182,0.0,8.0,98,0.00,,---,0.03,VWS V14.01,2013-01-30 19:19:00,
2013-01-30 11:24:00,35.3,34.8,30.12,SW,232,2.0,8.0,98,0.00,,---,0.03,VWS V14.01,2013-01-30 19:24:00,
2013-01-30 11:29:00,35.6,34.8,30.12,SW,223,3.0,8.0,97,0.00,,---,0.03,VWS V14.01,2013-01-30 19:29:00,
2013-01-30 11:34:00,35.8,35.0,30.12,SSW,207,3.0,9.0,97,0.00,,---,0.03,VWS V14.01,2013-01-30 19:34:00,
2013-01-30 11:39:00,36.1,35.3,30.12,SSW,198,3.0,9.0,97,0.00,,---,0.03,VWS V14.01,2013-01-30 19:39:00,
2013-01-30 11:44:00,36.4,35.4,30.12,WSW,257,2.0,9.0,96,0.00,,---,0.03,VWS V14.01,2013-01-30 19:44:00,
2013-01-30 11:49:00,36.7,35.7,30.11,WSW,255,2.0,9.0,96,0.00,,---,0.03,VWS V14.01,2013-01-30 19:49:00,
2013-01-30 11:54:00,37.0,35.7,30.11,SSW,200,4.0,9.0,95,0.01,,---,0.04,VWS V14.01,2013-01-30 19:54:00,
2013-01-30 11:59:00,37.1,35.8,30.11,SSW,206,3.0,9.0,95,0.01,,---,0.04,VWS V14.01,2013-01-30 19:59:00,
2013-01-30 12:00:00,37.3,35.7,30.11,SW,215,4.0,9.0,94,0.01,,---,0.04,VWS V14.01,2013-01-30 20:00:00,
2013-01-30 12:04:00,37.4,35.8,30.11,SSE,168,4.0,6.0,94,0.01,,---,0.04,VWS V14.01,2013-01-30 20:04:00,
2013-01-30 12:09:00,37.5,35.9,30.11,SW,215,6.0,7.0,94,0.01,,---,0.04,VWS V14.01,2013-01-30 20:09:00,
2013-01-30 12:14:00,38.0,36.2,30.11,SW,235,4.0,7.0,93,0.01,,---,0.04,VWS V14.01,2013-01-30 20:14:00,
2013-01-30 12:19:00,38.5,36.4,30.11,SSW,197,4.0,8.0,92,0.01,,---,0.04,VWS V14.01,2013-01-30 20:19:00,
2013-01-30 12:24:00,38.8,36.7,30.11,WSW,248,5.0,8.0,92,0.01,,---,0.04,VWS V14.01,2013-01-30 20:24:00,
2013-01-30 12:29:00,38.7,36.3,30.11,SW,215,6.0,8.0,91,0.01,,---,0.04,VWS V14.01,2013-01-30 20:29:00,
2013-01-30 12:34:00,38.9,36.5,30.11,WNW,293,2.0,8.0,91,0.01,,---,0.04,VWS V14.01,2013-01-30 20:34:00,
2013-01-30 12:39:00,38.9,36.5,30.11,South,183,7.0,8.0,91,0.01,,---,0.04,VWS V14.01,2013-01-30 20:39:00,
2013-01-30 12:44:00,39.0,36.3,30.11,WSW,252,2.0,9.0,90,0.01,,---,0.04,VWS V14.01,2013-01-30 20:44:00,
2013-01-30 12:49:00,39.1,36.4,30.11,WSW,252,2.0,9.0,90,0.01,,---,0.04,VWS V14.01,2013-01-30 20:49:00,
2013-01-30 12:54:00,39.2,36.5,30.11,SSW,204,3.0,9.0,90,0.01,,---,0.04,VWS V14.01,2013-01-30 20:54:00,
2013-01-30 12:59:00,39.2,36.5,30.11,SW,215,2.0,9.0,90,0.01,,---,0.04,VWS V14.01,2013-01-30 20:59:00,
2013-01-30 13:00:00,39.2,36.5,30.11,WNW,288,5.0,9.0,90,0.01,,---,0.04,VWS V14.01,2013-01-30 21:00:00,
2013-01-30 13:04:00,39.1,36.4,30.11,SW,236,3.0,6.0,90,0.00,,---,0.04,VWS V14.01,2013-01-30 21:04:00,
2013-01-30 13:09:00,39.1,36.4,30.11,WSW,245,3.0,7.0,90,0.00,,---,0.04,VWS V14.01,2013-01-30 21:09:00,
2013-01-30 13:14:00,39.3,36.3,30.11,WSW,241,2.0,9.0,89,0.00,,---,0.04,VWS V14.01,2013-01-30 21:14:00,
2013-01-30 13:19:00,39.2,36.5,30.11,South,175,5.0,9.0,90,0.00,,---,0.04,VWS V14.01,2013-01-30 21:19:00,
2013-01-30 13:24:00,39.5,36.8,30.11,SW,214,3.0,9.0,90,0.00,,---,0.04,VWS V14.01,2013-01-30 21:24:00,
2013-01-30 13:29:00,39.5,36.5,30.12,SW,236,4.0,9.0,89,0.00,,---,0.04,VWS V14.01,2013-01-30 21:29:00,
2013-01-30 13:34:00,39.5,36.5,30.12,SSW,195,8.0,9.0,89,0.00,,---,0.04,VWS V14.01,2013-01-30 21:34:00,
2013-01-30 13:39:00,39.7,36.7,30.12,West,269,5.0,9.0,89,0.00,,---,0.04,VWS V14.01,2013-01-30 21:39:00,
2013-01-30 13:44:00,40.0,36.7,30.12,SSW,211,4.0,9.0,88,0.00,,---,0.04,VWS V14.01,2013-01-30 21:44:00,
2013-01-30 13:49:00,40.0,36.7,30.12,SW,224,5.0,9.0,88,0.00,,---,0.04,VWS V14.01,2013-01-30 21:49:00,
2013-01-30 13:54:00,40.1,36.8,30.12,WSW,252,5.0,9.0,88,0.00,,---,0.04,VWS V14.01,2013-01-30 21:54:00,
2013-01-30 13:59:00,40.1,36.8,30.12,WSW,247,5.0,9.0,88,0.00,,---,0.04,VWS V14.01,2013-01-30 21:59:00,
2013-01-30 14:00:00,40.2,36.9,30.12,SW,236,2.0,9.0,88,0.00,,---,0.04,VWS V14.01,2013-01-30 22:00:00,
2013-01-30 14:04:00,40.3,37.0,30.12,SSW,205,3.0,7.0,88,0.00,,---,0.04,VWS V14.01,2013-01-30 22:04:00,
2013-01-30 14:09:00,40.3,37.0,30.12,SSE,157,0.0,7.0,88,0.00,,---,0.04,VWS V14.01,2013-01-30 22:09:00,
2013-01-30 14:14:00,40.4,37.1,30.12,WSW,247,2.0,7.0,88,0.00,,---,0.04,VWS V14.01,2013-01-30 22:14:00,
2013-01-30 14:19:00,40.5,37.2,30.12,South,185,2.0,7.0,88,0.00,,---,0.04,VWS V14.01,2013-01-30 22:19:00,
2013-01-30 14:24:00,40.5,37.2,30.12,SSW,197,6.0,7.0,88,0.00,,---,0.04,VWS V14.01,2013-01-30 22:24:00,
2013-01-30 14:29:00,40.7,37.1,30.12,SW,219,0.0,7.0,87,0.00,,---,0.04,VWS V14.01,2013-01-30 22:29:00,
2013-01-30 14:34:00,40.6,37.0,30.12,SW,235,4.0,7.0,87,0.00,,---,0.04,VWS V14.01,2013-01-30 22:34:00,
2013-01-30 14:39:00,41.0,37.4,30.12,SSW,211,4.0,7.0,87,0.00,,---,0.04,VWS V14.01,2013-01-30 22:39:00,
2013-01-30 14:44:00,40.9,37.3,30.12,West,267,2.0,7.0,87,0.00,,---,0.04,VWS V14.01,2013-01-30 22:44:00,
2013-01-30 14:49:00,40.8,37.5,30.12,SW,214,1.0,9.0,88,0.00,,---,0.04,VWS V14.01,2013-01-30 22:49:00,
2013-01-30 14:54:00,40.9,37.3,30.12,SW,227,4.0,9.0,87,0.00,,---,0.04,VWS V14.01,2013-01-30 22:54:00,
2013-01-30 14:59:00,40.9,37.3,30.12,SSW,210,2.0,9.0,87,0.00,,---,0.04,VWS V14.01,2013-01-30 22:59:00,
2013-01-30 15:00:00,40.8,37.2,30.12,SW,227,4.0,9.0,87,0.00,,---,0.04,VWS V14.01,2013-01-30 23:00:00,
2013-01-30 15:04:00,40.7,37.1,30.11,WSW,257,1.0,6.0,87,0.00,,---,0.04,VWS V14.01,2013-01-30 23:04:00,
2013-01-30 15:09:00,40.7,37.4,30.11,South,190,5.0,6.0,88,0.00,,---,0.04,VWS V14.01,2013-01-30 23:09:00,
2013-01-30 15:14:00,40.9,37.3,30.11,SSW,212,4.0,6.0,87,0.00,,---,0.04,VWS V14.01,2013-01-30 23:14:00,
2013-01-30 15:19:00,40.5,37.2,30.12,SW,230,0.0,6.0,88,0.00,,---,0.04,VWS V14.01,2013-01-30 23:19:00,
2013-01-30 15:24:00,40.7,37.4,30.12,SSW,211,3.0,7.0,88,0.00,,---,0.04,VWS V14.01,2013-01-30 23:24:00,
2013-01-30 15:29:00,40.6,37.0,30.12,South,191,2.0,7.0,87,0.00,,---,0.04,VWS V14.01,2013-01-30 23:29:00,
2013-01-30 15:34:00,40.5,37.2,30.12,SW,222,1.0,7.0,88,0.00,,---,0.04,VWS V14.01,2013-01-30 23:34:00,
2013-01-30 15:39:00,40.2,36.9,30.12,SSW,212,1.0,7.0,88,0.00,,---,0.04,VWS V14.01,2013-01-30 23:39:00,
2013-01-30 15:44:00,39.7,36.7,30.12,SW,229,1.0,7.0,89,0.00,,---,0.04,VWS V14.01,2013-01-30 23:44:00,
2013-01-30 15:49:00,39.4,36.4,30.13,SSW,209,0.0,7.0,89,0.00,,---,0.04,VWS V14.01,2013-01-30 23:49:00,
2013-01-30 15:54:00,39.1,36.1,30.13,SW,225,0.0,7.0,89,0.00,,---,0.04,VWS V14.01,2013-01-30 23:54:00,
2013-01-30 15:59:00,38.9,35.9,30.12,SSW,209,0.0,7.0,89,0.00,,---,0.04,VWS V14.01,2013-01-30 23:59:00,
2013-01-30 16:00:00,38.8,36.1,30.13,SSW,209,0.0,7.0,90,0.00,,---,0.04,VWS V14.01,2013-01-31 00:00:00,
2013-01-30 16:04:00,38.7,36.0,30.13,SSW,209,0.0,0.0,90,0.00,,---,0.04,VWS V14.01,2013-01-31 00:04:00,
2013-01-30 16:09:00,38.4,35.7,30.13,SSW,209,1.0,2.0,90,0.00,,---,0.04,VWS V14.01,2013-01-31 00:09:00,
2013-01-30 16:14:00,38.0,35.3,30.13,SSW,209,0.0,2.0,90,0.00,,---,0.04,VWS V14.01,2013-01-31 00:14:00,
2013-01-30 16:19:00,37.9,35.5,30.13,SSW,209,0.0,2.0,91,0.00,,---,0.04,VWS V14.01,2013-01-31 00:19:00,
2013-01-30 16:24:00,37.2,35.1,30.13,SSW,196,0.0,2.0,92,0.00,,---,0.04,VWS V14.01,2013-01-31 00:24:00,
2013-01-30 16:29:00,36.3,34.2,30.13,SSW,196,0.0,2.0,92,0.00,,---,0.04,VWS V14.01,2013-01-31 00:29:00,
2013-01-30 16:34:00,36.1,34.5,30.13,South,181,0.0,4.0,94,0.00,,---,0.04,VWS V14.01,2013-01-31 00:34:00,
2013-01-30 16:39:00,35.5,34.0,30.13,South,181,0.0,4.0,94,0.00,,---,0.04,VWS V14.01,2013-01-31 00:39:00,
2013-01-30 16:44:00,35.1,33.5,30.13,South,181,0.0,4.0,94,0.00,,---,0.04,VWS V14.01,2013-01-31 00:44:00,
2013-01-30 16:49:00,34.4,32.9,30.14,South,181,1.0,4.0,94,0.00,,---,0.04,VWS V14.01,2013-01-31 00:49:00,
2013-01-30 16:54:00,33.9,32.6,30.14,South,181,1.0,4.0,95,0.00,,---,0.04,VWS V14.01,2013-01-31 00:54:00,
2013-01-30 16:59:00,33.3,32.0,30.14,South,181,0.0,4.0,95,0.00,,---,0.04,VWS V14.01,2013-01-31 00:59:00,
2013-01-30 17:00:00,33.0,31.7,30.13,South,181,0.0,4.0,95,0.00,,---,0.04,VWS V14.01,2013-01-31 01:00:00,
2013-01-30 17:04:00,32.7,31.4,30.14,South,181,0.0,0.0,95,0.00,,---,0.04,VWS V14.01,2013-01-31 01:04:00,
2013-01-30 17:09:00,32.6,31.6,30.14,South,181,0.0,0.0,96,0.00,,---,0.04,VWS V14.01,2013-01-31 01:09:00,
2013-01-30 17:14:00,32.4,31.4,30.14,South,181,0.0,0.0,96,0.00,,---,0.04,VWS V14.01,2013-01-31 01:14:00,
2013-01-30 17:19:00,31.9,30.9,30.14,South,181,1.0,1.0,96,0.00,,---,0.04,VWS V14.01,2013-01-31 01:19:00,
2013-01-30 17:24:00,31.4,30.4,30.14,South,181,0.0,2.0,96,0.00,,---,0.04,VWS V14.01,2013-01-31 01:24:00,
2013-01-30 17:29:00,31.3,30.5,30.14,South,181,0.0,2.0,97,0.00,,---,0.04,VWS V14.01,2013-01-31 01:29:00,
2013-01-30 17:34:00,30.9,30.1,30.15,South,181,0.0,2.0,97,0.00,,---,0.04,VWS V14.01,2013-01-31 01:34:00,
2013-01-30 17:39:00,30.4,29.6,30.15,South,181,0.0,2.0,97,0.00,,---,0.04,VWS V14.01,2013-01-31 01:39:00,
2013-01-30 17:44:00,30.5,29.8,30.15,South,181,0.0,2.0,97,0.00,,---,0.04,VWS V14.01,2013-01-31 01:44:00,
2013-01-30 17:49:00,30.3,29.5,30.15,South,181,0.0,2.0,97,0.00,,---,0.04,VWS V14.01,2013-01-31 01:49:00,
2013-01-30 17:54:00,30.2,29.5,30.15,South,181,0.0,2.0,97,0.00,,---,0.04,VWS V14.01,2013-01-31 01:54:00,
2013-01-30 17:59:00,30.2,29.5,30.15,South,181,0.0,2.0,97,0.00,,---,0.04,VWS V14.01,2013-01-31 01:59:00,
2013-01-30 18:00:00,30.1,29.4,30.15,South,181,0.0,2.0,97,0.00,,---,0.04,VWS V14.01,2013-01-31 02:00:00,
2013-01-30 18:04:00,30.0,29.2,30.15,South,181,0.0,0.0,97,0.00,,---,0.04,VWS V14.01,2013-01-31 02:04:00,
2013-01-30 18:09:00,30.0,29.2,30.15,South,181,0.0,0.0,97,0.00,,---,0.04,VWS V14.01,2013-01-31 02:09:00,
2013-01-30 18:14:00,29.9,29.1,30.15,South,181,0.0,0.0,97,0.00,,---,0.04,VWS V14.01,2013-01-31 02:14:00,
2013-01-30 18:19:00,29.6,28.9,30.15,South,181,0.0,0.0,97,0.00,,---,0.04,VWS V14.01,2013-01-31 02:19:00,
2013-01-30 18:24:00,29.4,28.7,30.15,South,181,0.0,0.0,97,0.00,,---,0.04,VWS V14.01,2013-01-31 02:24:00,
2013-01-30 18:29:00,29.2,28.5,30.14,South,181,0.0,0.0,97,0.00,,---,0.04,VWS V14.01,2013-01-31 02:29:00,
2013-01-30 18:34:00,29.1,28.4,30.14,South,181,0.0,0.0,97,0.00,,---,0.04,VWS V14.01,2013-01-31 02:34:00,
2013-01-30 18:39:00,29.1,28.4,30.15,South,181,0.0,0.0,97,0.00,,---,0.04,VWS V14.01,2013-01-31 02:39:00,
2013-01-30 18:44:00,29.2,28.7,30.15,South,181,0.0,0.0,98,0.00,,---,0.04,VWS V14.01,2013-01-31 02:44:00,
2013-01-30 18:49:00,28.9,28.4,30.15,South,181,0.0,0.0,98,0.00,,---,0.04,VWS V14.01,2013-01-31 02:49:00,
2013-01-30 18:54:00,29.0,28.5,30.15,South,181,0.0,0.0,98,0.00,,---,0.04,VWS V14.01,2013-01-31 02:54:00,
2013-01-30 18:59:00,28.9,28.4,30.15,South,181,0.0,0.0,98,0.00,,---,0.04,VWS V14.01,2013-01-31 02:59:00,
2013-01-30 19:00:00,28.6,28.1,30.15,South,181,1.0,1.0,98,0.00,,---,0.04,VWS V14.01,2013-01-31 03:00:00,
2013-01-30 19:04:00,28.5,28.0,30.15,South,181,0.0,2.0,98,0.00,,---,0.04,VWS V14.01,2013-01-31 03:04:00,
2013-01-30 19:09:00,28.4,27.9,30.15,South,181,0.0,2.0,98,0.00,,---,0.04,VWS V14.01,2013-01-31 03:09:00,
2013-01-30 19:14:00,28.5,28.0,30.15,South,181,0.0,2.0,98,0.00,,---,0.04,VWS V14.01,2013-01-31 03:14:00,
2013-01-30 19:19:00,28.6,28.1,30.15,South,181,0.0,0.0,98,0.00,,---,0.04,VWS V14.01,2013-01-31 03:19:00,
2013-01-30 19:24:00,28.3,27.8,30.15,South,181,0.0,0.0,98,0.00,,---,0.04,VWS V14.01,2013-01-31 03:24:00,
2013-01-30 19:29:00,28.7,28.2,30.15,South,181,0.0,0.0,98,0.00,,---,0.04,VWS V14.01,2013-01-31 03:29:00,
2013-01-30 19:34:00,29.3,28.8,30.15,South,181,0.0,0.0,98,0.00,,---,0.04,VWS V14.01,2013-01-31 03:34:00,
2013-01-30 19:39:00,29.1,28.6,30.15,South,181,0.0,0.0,98,0.00,,---,0.04,VWS V14.01,2013-01-31 03:39:00,
2013-01-30 19:44:00,29.2,28.7,30.15,South,181,0.0,0.0,98,0.00,,---,0.04,VWS V14.01,2013-01-31 03:44:00,
2013-01-30 19:49:00,28.7,28.2,30.16,South,181,0.0,0.0,98,0.00,,---,0.04,VWS V14.01,2013-01-31 03:49:00,
2013-01-30 19:54:00,28.3,27.8,30.16,South,181,0.0,0.0,98,0.00,,---,0.04,VWS V14.01,2013-01-31 03:54:00,
2013-01-30 19:59:00,28.3,27.8,30.16,South,181,0.0,0.0,98,0.00,,---,0.04,VWS V14.01,2013-01-31 03:59:00,
2013-01-30 20:04:00,28.3,27.8,30.16,South,181,0.0,0.0,98,0.00,,---,0.04,VWS V14.01,2013-01-31 04:04:00,
2013-01-30 20:09:00,28.4,27.9,30.16,South,181,0.0,0.0,98,0.00,,---,0.04,VWS V14.01,2013-01-31 04:09:00,
2013-01-30 20:14:00,28.4,27.9,30.16,South,181,0.0,0.0,98,0.00,,---,0.04,VWS V14.01,2013-01-31 04:14:00,
2013-01-30 20:19:00,28.6,28.1,30.16,South,181,0.0,0.0,98,0.00,,---,0.04,VWS V14.01,2013-01-31 04:19:00,
2013-01-30 20:24:00,28.4,27.9,30.16,South,181,0.0,0.0,98,0.00,,---,0.04,VWS V14.01,2013-01-31 04:24:00,
2013-01-30 20:29:00,28.3,27.8,30.17,South,181,0.0,0.0,98,0.00,,---,0.04,VWS V14.01,2013-01-31 04:29:00,
2013-01-30 20:34:00,28.4,27.9,30.16,South,181,0.0,0.0,98,0.00,,---,0.04,VWS V14.01,2013-01-31 04:34:00,
2013-01-30 20:39:00,28.7,28.2,30.16,South,181,0.0,0.0,98,0.00,,---,0.04,VWS V14.01,2013-01-31 04:39:00,
2013-01-30 20:44:00,29.0,28.5,30.16,South,181,0.0,0.0,98,0.00,,---,0.04,VWS V14.01,2013-01-31 04:44:00,
2013-01-30 20:49:00,28.9,28.4,30.16,South,181,0.0,0.0,98,0.00,,---,0.04,VWS V14.01,2013-01-31 04:49:00,
2013-01-30 20:54:00,28.9,28.4,30.16,South,181,0.0,0.0,98,0.00,,---,0.04,VWS V14.01,2013-01-31 04:54:00,
2013-01-30 20:59:00,29.1,28.6,30.16,South,181,1.0,1.0,98,0.00,,---,0.04,VWS V14.01,2013-01-31 04:59:00,
2013-01-30 21:00:00,29.2,28.7,30.16,South,181,0.0,1.0,98,0.00,,---,0.04,VWS V14.01,2013-01-31 05:00:00,
2013-01-30 21:01:00,29.5,29.0,30.17,South,181,0.0,1.0,98,0.00,,---,0.04,VWS V14.01,2013-01-31 05:01:00,
2013-01-30 21:03:00,29.8,29.3,30.17,South,181,0.0,0.0,98,0.00,,---,0.04,VWS V14.01,2013-01-31 05:03:00,
2013-01-30 21:08:00,30.4,29.9,30.16,South,181,0.0,3.0,98,0.00,,---,0.04,VWS V14.01,2013-01-31 05:08:00,
2013-01-30 21:13:00,30.9,30.4,30.16,South,181,0.0,3.0,98,0.00,,---,0.04,VWS V14.01,2013-01-31 05:13:00,
2013-01-30 21:18:00,31.0,30.5,30.16,South,181,0.0,3.0,98,0.00,,---,0.04,VWS V14.01,2013-01-31 05:18:00,
2013-01-30 21:23:00,31.1,30.6,30.16,South,181,0.0,3.0,98,0.00,,---,0.04,VWS V14.01,2013-01-31 05:23:00,
2013-01-30 21:28:00,31.5,31.0,30.16,South,181,0.0,3.0,98,0.00,,---,0.04,VWS V14.01,2013-01-31 05:28:00,
2013-01-30 21:33:00,32.1,31.6,30.16,South,181,0.0,4.0,98,0.00,,---,0.04,VWS V14.01,2013-01-31 05:33:00,
2013-01-30 21:38:00,32.4,31.9,30.16,WNW,282,1.0,6.0,98,0.00,,---,0.04,VWS V14.01,2013-01-31 05:38:00,
2013-01-30 21:43:00,32.6,32.3,30.16,SW,229,1.0,6.0,99,0.00,,---,0.04,VWS V14.01,2013-01-31 05:43:00,
2013-01-30 21:48:00,32.9,32.4,30.16,SW,229,1.0,6.0,98,0.00,,---,0.04,VWS V14.01,2013-01-31 05:48:00,
2013-01-30 21:53:00,33.0,32.5,30.16,SW,221,3.0,6.0,98,0.00,,---,0.04,VWS V14.01,2013-01-31 05:53:00,
2013-01-30 21:58:00,33.0,32.5,30.16,SW,219,1.0,6.0,98,0.00,,---,0.04,VWS V14.01,2013-01-31 05:58:00,
2013-01-30 22:03:00,33.0,32.5,30.16,SW,220,3.0,3.0,98,0.00,,---,0.04,VWS V14.01,2013-01-31 06:03:00,
2013-01-30 22:08:00,33.2,33.0,30.16,SSW,211,1.0,4.0,99,0.00,,---,0.04,VWS V14.01,2013-01-31 06:08:00,
2013-01-30 22:13:00,33.1,32.8,30.16,WSW,242,2.0,5.0,99,0.00,,---,0.04,VWS V14.01,2013-01-31 06:13:00,
2013-01-30 22:18:00,33.1,32.8,30.16,SW,216,1.0,5.0,99,0.00,,---,0.04,VWS V14.01,2013-01-31 06:18:00,
2013-01-30 22:23:00,33.2,33.0,30.16,SW,215,0.0,5.0,99,0.00,,---,0.04,VWS V14.01,2013-01-31 06:23:00,
2013-01-30 22:28:00,33.1,32.8,30.16,SSE,167,0.0,5.0,99,0.00,,---,0.04,VWS V14.01,2013-01-31 06:28:00,
2013-01-30 22:33:00,33.1,32.8,30.16,SSE,167,0.0,5.0,99,0.00,,---,0.04,VWS V14.01,2013-01-31 06:33:00,
2013-01-30 22:38:00,33.0,32.8,30.16,WSW,238,6.0,6.0,99,0.00,,---,0.04,VWS V14.01,2013-01-31 06:38:00,
2013-01-30 22:43:00,33.1,32.8,30.16,SSE,151,4.0,8.0,99,0.00,,---,0.04,VWS V14.01,2013-01-31 06:43:00,
2013-01-30 22:48:00,33.1,32.8,30.16,SW,234,0.0,8.0,99,0.00,,---,0.04,VWS V14.01,2013-01-31 06:48:00,
2013-01-30 22:53:00,33.0,32.8,30.16,SSW,213,2.0,8.0,99,0.00,,---,0.04,VWS V14.01,2013-01-31 06:53:00,
2013-01-30 22:58:00,33.1,32.8,30.16,WSW,255,3.0,8.0,99,0.00,,---,0.04,VWS V14.01,2013-01-31 06:58:00,
2013-01-30 23:03:00,33.0,32.5,30.16,South,184,3.0,7.0,98,0.00,,---,0.04,VWS V14.01,2013-01-31 07:03:00,
2013-01-30 23:08:00,33.0,32.5,30.17,South,184,0.0,7.0,98,0.00,,---,0.04,VWS V14.01,2013-01-31 07:08:00,
2013-01-30 23:13:00,32.9,32.4,30.17,SW,236,1.0,7.0,98,0.00,,---,0.04,VWS V14.01,2013-01-31 07:13:00,
2013-01-30 23:18:00,32.9,32.4,30.17,West,263,1.0,7.0,98,0.00,,---,0.04,VWS V14.01,2013-01-31 07:18:00,
2013-01-30 23:23:00,32.9,32.7,30.17,South,169,4.0,7.0,99,0.00,,---,0.04,VWS V14.01,2013-01-31 07:23:00,
2013-01-30 23:28:00,33.0,32.5,30.17,SW,220,1.0,7.0,98,0.00,,---,0.04,VWS V14.01,2013-01-31 07:28:00,
2013-01-30 23:33:00,32.9,32.7,30.17,SW,220,2.0,7.0,99,0.00,,---,0.04,VWS V14.01,2013-01-31 07:33:00,
2013-01-30 23:38:00,32.8,32.5,30.17,SW,220,3.0,7.0,99,0.00,,---,0.04,VWS V14.01,2013-01-31 07:38:00,
2013-01-30 23:43:00,32.9,32.7,30.17,SW,222,0.0,7.0,99,0.00,,---,0.04,VWS V14.01,2013-01-31 07:43:00,
2013-01-30 23:48:00,32.9,32.7,30.17,SW,221,3.0,7.0,99,0.00,,---,0.04,VWS V14.01,2013-01-31 07:48:00,
2013-01-30 23:53:00,32.8,32.5,30.17,SW,221,0.0,7.0,99,0.00,,---,0.04,VWS V14.01,2013-01-31 07:53:00,
2013-01-30 23:58:00,32.8,32.5,30.18,SW,219,1.0,7.0,99,0.00,,---,0.04,VWS V14.01,2013-01-31 07:58:00,